Location: Bemmer
(51.5498°N, 5.6249°E)
Time: 12:47:20
(UTC+00:00)

CZ-4B R/B - Pass Details

Date: 03 March 2021
Orbit: 388 x 454 km, 97.6° (Epoch: 16 April)

Event Time Altitude Azimuth Distance (km) Brightness Sun altitude
Rises 18:38:10 0° 5° (N) 2,296 5.0 -12.7°
Reaches altitude 10° 18:40:17 10° 354° (N) 1,436 4.1 -13.0°
Maximum altitude 18:42:59 29° 292° (WNW) 754 3.3 -13.4°
Drops below altitude 10° 18:45:41 10° 230° (SW) 1,437 4.6 -13.8°
Sets 18:47:48 0° 218° (SW) 2,298 5.4 -14.2°
